Weather History for Lancaster, CA

Change the Weather History Date:

Tuesday, November 13, 2012

  Actual Average Record
Temperature  
Mean Temperature 43 °F 52 °F  
Max Temperature 66 °F 68 °F 79 °F (1995)
Min Temperature 19 °F 37 °F 18 °F (2000)
Degree Days  
Heating Degree Days 22    
Month to date heating degree days 143  
Since 1 July heating degree days 235  
Cooling Degree Days 0    
Month to date cooling degree days 0  
Year to date cooling degree days 2282  
Moisture  
Dew Point 2 °F    
Average Humidity 23    
Maximum Humidity 39    
Minimum Humidity 7    
Precipitation  
Precipitation 0.00 in 0.02 in 0.25 in (1984)
Month to date precipitation T 0.21  
Year to date precipitation 1.74 5.90  
Since 1 July precipitation 0.04 0.99  
Snow  
Snow 0.00 in - 0.00 in ()
Month to date snowfall 0.0  
Since 1 July snowfall 0.0  
Since 1 September snowfall 0.0  
Snow Depth 0.00 in    
Sea Level Pressure  
Sea Level Pressure 30.26 in    
Wind  
Wind Speed 3 mph (NW)    
Max Wind Speed 9 mph    
Max Gust Speed 13 mph    
Visibility 10 miles    
Events      
T = Trace of Precipitation, MM = Missing Value Source: NWS Daily Summary

Daily Weather History Graph

Daily Weather History Graph

Search for Another Location

Airport:

Trip Planner

Search our weather history database for the weather conditions in past years. The results will help you decide how hot, cold, wet, or windy it might be!

Date:

Astronomy

Nov. 13, 2012 Rise Set
Actual Time 6:25 AM PST 4:48 PM PST
Civil Twilight 5:58 AM PST 5:15 PM PST
Nautical Twilight 5:28 AM PST 5:45 PM PST
Astronomical Twilight 4:58 AM PST 6:15 PM PST
Moon 6:08 AM PST (11/13) 4:47 PM PST (11/13)
Length of Visible Light 11h 16m
Length of Day
10h 23m
Waning Crescent, 0% of the Moon is Illuminated
Nov 13
Waning Crescent
Nov 13
New
Nov 20
First Quarter
Nov 28
Full
Dec 6
Last Quarter

Hourly Weather History & Observations

Time (PST) Temp. Windchill Dew Point Humidity Pressure Visibility Wind Dir Wind Speed Gust Speed Precip Events Conditions
12:56 AM 28.9 °F - 7.0 °F 40% 30.31 in 10.0 mi Calm Calm - N/A   Clear
1:56 AM 23.0 °F - -0.0 °F 37% 30.32 in 10.0 mi Calm Calm - N/A   Clear
2:56 AM 24.1 °F 18.2 °F 1.9 °F 38% 30.32 in 10.0 mi WNW 4.6 mph - N/A   Clear
3:56 AM 25.0 °F - 1.9 °F 37% 30.32 in 10.0 mi Calm Calm - N/A   Clear
4:56 AM 24.1 °F - -0.0 °F 35% 30.32 in 10.0 mi Calm Calm - N/A   Clear
5:56 AM 25.0 °F - 1.9 °F 37% 30.33 in 10.0 mi Calm Calm - N/A   Clear
6:56 AM 19.9 °F - -2.0 °F 38% 30.35 in 10.0 mi Calm Calm - N/A   Clear
7:56 AM 32.0 °F - 3.9 °F 31% 30.35 in 10.0 mi Calm Calm - N/A   Clear
8:56 AM 39.9 °F - 5.0 °F 23% 30.35 in 10.0 mi Calm Calm - N/A   Clear
9:56 AM 48.0 °F - 6.1 °F 18% 30.32 in 10.0 mi Calm Calm - N/A   Clear
10:56 AM 55.0 °F - 5.0 °F 13% 30.29 in 10.0 mi Calm Calm - N/A   Clear
11:56 AM 57.9 °F - 5.0 °F 12% 30.26 in 10.0 mi Variable 3.5 mph - N/A   Clear
12:56 PM 63.0 °F - 3.9 °F 10% 30.22 in 10.0 mi Variable 3.5 mph - N/A   Clear
1:56 PM 64.9 °F - 3.0 °F 9% 30.19 in 10.0 mi East 5.8 mph - N/A   Clear
2:56 PM 66.0 °F - 1.9 °F 8% 30.18 in 10.0 mi ENE 5.8 mph - N/A   Clear
3:56 PM 64.9 °F - 1.0 °F 8% 30.18 in 10.0 mi ENE 4.6 mph - N/A   Clear
4:56 PM 61.0 °F - 1.9 °F 9% 30.18 in 10.0 mi Calm Calm - N/A   Clear
5:56 PM 46.9 °F - -0.0 °F 14% 30.21 in 10.0 mi West 5.8 mph - N/A   Clear
6:56 PM 39.9 °F 35.8 °F -2.0 °F 17% 30.23 in 10.0 mi WNW 5.8 mph - N/A   Clear
7:56 PM 36.0 °F 30.3 °F -2.0 °F 20% 30.22 in 10.0 mi West 6.9 mph - N/A   Clear
8:56 PM 37.9 °F - 3.0 °F 23% 30.22 in 10.0 mi Calm Calm - N/A   Clear
9:56 PM 34.0 °F 29.8 °F -2.9 °F 21% 30.22 in 10.0 mi NNW 4.6 mph - N/A   Clear
10:56 PM 35.1 °F 28.6 °F 1.0 °F 24% 30.22 in 10.0 mi West 8.1 mph - N/A   Clear
11:56 PM 33.1 °F - 1.0 °F 26% 30.22 in 10.0 mi Calm Calm - N/A   Clear